Location: Bettgenhausen
(50.6463°N, 7.5681°E)
Time: 09:29:15
(UTC+00:00)

Cosmos 841 Rocket - Pass Details

Date: 27 February 2020
Orbit: 746 x 773 km, 74.0° (Epoch: 03 April)

Event Time Altitude Azimuth Distance (km) Brightness Sun altitude
Rises 19:00:47 0° 190° (S) 3,180 6.7 -18.8°
Reaches altitude 10° 19:03:09 10° 187° (S) 2,263 5.9 -19.2°
Maximum altitude 19:08:10 59° 109° (ESE) 869 3.4 -19.9°
Drops below altitude 10° 19:13:16 10° 30° (NNE) 2,294 5.8 -20.7°
Sets 19:15:41 0° 27° (NNE) 3,228 6.6 -21.1°
